[[{"header":{"parameterUnit":"m.s-1","parameterCategory":2,"la1":30.2991,"la2":30.254,"lo1":-89.0895,"lo2":-89.0444,"dy":0.0017,"dx":0.0017,"nx":28,"ny":28,"refTime":"2025-03-26T21:00:00:Z","depth":"0","parameterNumber":2,"parameterNumberName":"U-component_of_CURRENTS"},"data":[0,0,0,0,0,0,0,0,0,0,0,0,0,0,0,0,0,0,0,0,0,0,0,0,0,0,0,0,0,0,0,0,0,0,0,0,0,0,0,0,0,0,0,0,0,0,0,0,0,0,0,0,0,0,0,0,0,0,-0.2745,-0.2745,0,-0.2759,-0.276,-0.276,-0.2729,-0.2728,-0.2727,-0.2726,-0.2614,-0.2612,-0.261,0,0,0,0,0,0,0,0,0,0,0,0,0,-0.2648,-0.265,-0.2745,-0.2745,-0.2745,-0.2759,-0.276,-0.276,-0.2729,-0.2728,-0.2727,-0.2726,-0.2615,-0.2612,-0.261,0,0,0,0,0,0,0,0,0,0,0,0,0,-0.268,-0.2651,-0.2745,-0.273,-0.2729,-0.2759,-0.276,-0.276,-0.273,-0.2728,-0.2726,-0.2725,-0.2615,-0.2612,-0.261,-0.2624,0,0,-0.2601,-0.2599,0,0,0,0,0,0,0,0,-0.2678,-0.2684,-0.2732,-0.2731,-0.273,-0.274,-0.2684,-0.2708,-0.273,-0.2731,-0.2726,-0.2724,-0.2645,-0.2639,-0.2649,-0.2619,-0.2614,-0.26,-0.2599,-0.2597,-0.2596,0,0,0,0,0,0,0,-0.2676,-0.2683,-0.2752,-0.2733,-0.2731,-0.2709,-0.2712,-0.2689,-0.2695,-0.2731,-0.2728,-0.2729,-0.2643,-0.2652,-0.2646,-0.2613,-0.26,-0.2598,-0.2596,-0.2595,-0.257,-0.2571,0,0,0,0,0,0,-0.2677,-0.2681,-0.2751,-0.2752,-0.2698,-0.2712,-0.2716,-0.2739,-0.2698,-0.2691,-0.273,-0.2727,-0.2658,-0.2649,-0.2642,-0.2664,-0.2597,-0.2595,-0.2593,-0.2569,-0.2571,-0.2572,0,0,0,0,0,0,-0.2675,-0.2684,-0.275,-0.2714,-0.2721,-0.2716,-0.2742,-0.274,-0.2744,-0.2699,-0.2689,-0.2734,-0.2656,-0.2646,-0.2627,-0.2658,-0.2593,-0.2591,-0.2568,-0.257,-0.2571,-0.2703,0,0,0,0,0,0,-0.2673,-0.2684,-0.2699,-0.2715,-0.2723,-0.2783,-0.2744,-0.2742,-0.2746,-0.2743,-0.2699,-0.2688,-0.2654,-0.2632,-0.2624,-0.2653,-0.2588,-0.2567,-0.2569,-0.2571,-0.2697,-0.2709,-0.2719,0,0,0,0,0,-0.267,-0.2697,-0.27,-0.2708,-0.2746,-0.2785,-0.2788,-0.2777,-0.2748,-0.277,-0.2731,-0.2689,-0.2639,-0.2631,-0.2621,-0.265,-0.2565,-0.2568,-0.257,-0.2692,-0.2707,-0.2719,0,0,0,0,0,0,-0.2651,-0.2697,-0.2701,-0.2738,-0.2766,-0.2779,-0.2787,-0.2783,-0.2773,-0.2756,-0.2705,-0.2693,-0.2688,-0.2649,-0.2641,-0.2647,-0.2594,-0.2595,-0.269,-0.2703,-0.2714,-0.2725,-0.2586,0,0,0,0,0,-0.2659,-0.2689,-0.2732,-0.2753,-0.2775,-0.2782,-0.2792,-0.2794,-0.2788,-0.2782,-0.2751,-0.2713,-0.2696,-0.2682,-0.2657,-0.2663,-0.263,-0.2672,-0.2683,-0.2693,-0.2695,-0.2685,-0.2696,-0.258,-0.258,-0.258,0,0,-0.2641,-0.2677,-0.2685,-0.275,-0.2764,-0.2814,-0.2785,-0.281,-0.284,-0.2769,-0.2782,-0.2749,-0.2704,-0.2714,-0.2708,-0.2683,-0.2711,-0.2696,-0.2705,-0.2701,-0.2689,-0.27,-0.2711,-0.2582,-0.2581,-0.2581,0,0,-0.2634,-0.2674,-0.2702,-0.2751,-0.2797,-0.2822,-0.2834,-0.2863,-0.2868,-0.2885,-0.2841,-0.283,-0.2797,-0.2787,-0.2772,-0.2825,-0.2768,-0.2811,-0.2879,-0.2871,-0.2881,-0.2889,-0.2875,-0.2881,-0.2819,-0.2819,-0.282,0,-0.2605,-0.2674,-0.2711,-0.2771,-0.2812,-0.2831,-0.2885,-0.2907,-0.292,-0.2929,-0.2898,-0.2873,-0.2837,-0.2856,-0.2876,-0.2853,-0.2831,-0.2839,-0.2888,-0.2895,-0.2901,-0.2884,-0.2889,-0.2826,-0.2825,-0.2825,-0.2824,0,-0.263,-0.27,-0.2725,-0.2814,-0.2866,-0.2916,-0.2972,-0.3002,-0.3002,-0.3016,-0.303,-0.2995,-0.2976,-0.2974,-0.294,-0.2973,-0.2938,-0.2904,-0.286,-0.2921,-0.2899,-0.2901,-0.2836,-0.2833,-0.2831,-0.283,0,0,-0.251,-0.2707,-0.2707,-0.2788,-0.2905,-0.2947,-0.3016,-0.3086,-0.3112,-0.3126,-0.3156,-0.3145,-0.3119,-0.31,-0.3066,-0.3064,-0.3095,-0.3009,-0.3006,-0.3006,-0.3075,-0.294,-0.2929,-0.3071,-0.3072,-0.3073,-0.3048,0,-0.2511,-0.2647,-0.2741,-0.286,-0.2948,-0.3027,-0.309,-0.315,-0.318,-0.3214,-0.3205,-0.3207,-0.3171,-0.3157,-0.3162,-0.3101,-0.3105,-0.3105,-0.3005,-0.3002,-0.2884,-0.2929,-0.2825,-0.2783,-0.305,-0.305,-0.305,0,-0.2488,-0.2606,-0.2731,-0.293,-0.2967,-0.303,-0.3139,-0.32,-0.3265,-0.3281,-0.3304,-0.329,-0.3301,-0.3249,-0.3213,-0.3213,-0.3158,-0.3115,-0.3112,-0.2938,-0.2871,-0.2761,-0.2777,-0.276,-0.3053,-0.3053,-0.3053,0,-0.2381,-0.2588,-0.2695,-0.2762,-0.2973,-0.3024,-0.3111,-0.32,-0.3239,-0.3312,-0.3318,-0.3355,-0.332,-0.3303,-0.32,-0.3218,-0.3131,-0.3143,-0.298,-0.297,-0.2835,-0.281,-0.2825,-0.3122,-0.3122,-0.3122,-0.3122,0,-0.235,-0.2434,-0.2657,-0.2715,-0.2823,-0.2981,-0.3058,-0.3136,-0.3227,-0.3244,-0.3327,-0.3305,-0.3324,-0.3269,-0.3224,-0.3081,-0.3146,-0.2994,-0.2954,-0.2876,-0.2856,-0.2792,-0.2797,-0.3121,-0.3121,-0.3122,-0.3122,0,-0.221,-0.2362,-0.2491,-0.2711,-0.2777,-0.2833,-0.3012,-0.3051,-0.3157,-0.3177,-0.3193,-0.325,-0.319,-0.3177,-0.3112,-0.3054,-0.2905,-0.2897,-0.2795,-0.2743,-0.2605,-0.262,-0.2531,-0.2468,-0.2772,-0.2768,-0.2765,0,-0.2167,-0.2219,-0.2424,-0.2468,-0.2564,-0.2694,-0.2763,-0.2959,-0.3003,-0.3099,-0.3077,-0.3072,-0.3016,-0.2902,-0.2835,-0.2759,-0.2734,-0.2585,-0.2606,-0.2579,-0.2569,-0.2576,-0.2533,-0.2497,-0.2492,-0.2488,-0.2485,0,-0.2063,-0.2104,-0.2188,-0.2285,-0.2371,-0.2486,-0.2614,-0.2658,-0.2839,-0.2862,-0.285,-0.283,-0.2771,-0.2649,-0.2554,-0.2492,-0.2523,-0.2497,-0.2507,-0.238,-0.2352,-0.2276,-0.2539,-0.2449,-0.2453,-0.2456,-0.2458,-0.2459,-0.1929,-0.1935,-0.2012,-0.2083,-0.2166,-0.2237,-0.2271,-0.2399,-0.2451,-0.2476,-0.2559,-0.2495,-0.2475,-0.2357,-0.2295,-0.2179,-0.2255,-0.2136,-0.2167,-0.2185,-0.2088,-0.2255,-0.2086,-0.2087,-0.2089,-0.209,-0.2091,0,-0.1786,-0.1796,-0.1824,-0.1898,-0.189,-0.202,-0.2127,-0.2126,-0.212,-0.2188,-0.217,-0.215,-0.2044,-0.2053,-0.1977,-0.1892,-0.1886,-0.1843,-0.1878,-0.1859,-0.2037,-0.1986,-0.1741,-0.1741,-0.1741,-0.1741,-0.1741,-0.1741,-0.171,-0.167,-0.1687,-0.1621,-0.1649,-0.1629,-0.1655,-0.1665,-0.1708,-0.1685,-0.1714,-0.1795,-0.1831,-0.1925,-0.1828,-0.1749,-0.1728,-0.1641,-0.1683,-0.1869,-0.1902,-0.1933,-0.1889,-0.1627,-0.1626,-0.1462,-0.1461,-0.146]},{"header":{"parameterUnit":"m.s-1","parameterCategory":2,"la1":30.2991,"la2":30.254,"lo1":-89.0895,"lo2":-89.0444,"dy":0.0017,"dx":0.0017,"nx":28,"ny":28,"refTime":"2025-03-26T21:00:00:Z","depth":"0","parameterNumber":3,"parameterNumberName":"V-component_of_CURRENTS"},"data":[0,0,0,0,0,0,0,0,0,0,0,0,0,0,0,0,0,0,0,0,0,0,0,0,0,0,0,0,0,0,0,0,0,0,0,0,0,0,0,0,0,0,0,0,0,0,0,0,0,0,0,0,0,0,0,0,0,0,0.0062,0.0063,0,0.0158,0.0159,0.0161,0.0186,0.0185,0.0184,0.0183,0.0273,0.0276,0.0279,0,0,0,0,0,0,0,0,0,0,0,0,0,-0.0048,-0.0046,0.0062,0.0063,0.0064,0.0158,0.016,0.0161,0.0186,0.0185,0.0184,0.0183,0.0272,0.0276,0.028,0,0,0,0,0,0,0,0,0,0,0,0,0,0.0021,-0.0046,0.0062,0.0086,0.0089,0.0158,0.016,0.0161,0.0186,0.0185,0.0184,0.0183,0.0271,0.0275,0.028,0.0333,0,0,0.0294,0.0297,0,0,0,0,0,0,0,0,0.0017,0.0025,0.0082,0.0085,0.0088,0.0157,0.0153,0.0218,0.0186,0.0152,0.0183,0.0182,0.0233,0.0241,0.0265,0.0338,0.0341,0.0295,0.0298,0.03,0.0301,0,0,0,0,0,0,0,0.0012,0.0022,0.0103,0.0083,0.0087,0.0109,0.0118,0.0166,0.02,0.0155,0.0156,0.0164,0.0235,0.026,0.0267,0.0343,0.0295,0.0299,0.0302,0.0304,0.0465,0.0467,0,0,0,0,0,0,-0.0005,0.0017,0.01,0.0105,0.0046,0.0112,0.0121,0.0138,0.02,0.0207,0.0164,0.0164,0.0253,0.0262,0.027,0.0328,0.03,0.0304,0.0307,0.0464,0.0465,0.0467,0,0,0,0,0,0,-0.0008,0.0001,0.0096,0.0061,0.0074,0.0115,0.0133,0.014,0.0158,0.0206,0.0214,0.0172,0.0252,0.0264,0.032,0.0331,0.0306,0.0311,0.0462,0.0464,0.0466,0.0448,0,0,0,0,0,0,-0.0011,0.0,0.0005,0.006,0.0075,0.0132,0.0134,0.0143,0.0163,0.0164,0.0216,0.0224,0.0252,0.0313,0.0325,0.0337,0.0314,0.046,0.0463,0.0466,0.0446,0.0449,0.0451,0,0,0,0,0,-0.0015,-0.0014,0.0005,0.0014,0.0081,0.0133,0.0143,0.0169,0.0164,0.0179,0.0219,0.0222,0.0338,0.0319,0.0332,0.0346,0.0459,0.0462,0.0465,0.0445,0.0449,0.0451,0,0,0,0,0,0,-0.0067,-0.0009,0.0012,0.003,0.0078,0.0136,0.0144,0.0167,0.0212,0.0207,0.0248,0.026,0.0313,0.0339,0.0316,0.0402,0.0397,0.0403,0.0377,0.038,0.0383,0.0357,0.0318,0,0,0,0,0,-0.0073,-0.0053,0.001,0.0023,0.0045,0.0096,0.0118,0.0142,0.0188,0.0205,0.0245,0.0291,0.0341,0.0365,0.0414,0.0465,0.0492,0.0483,0.0485,0.0486,0.0477,0.0536,0.0542,0.0478,0.0478,0.0478,0,0,-0.0091,-0.0057,-0.0047,0.0014,0.0049,0.0077,0.0106,0.0138,0.0162,0.0209,0.0251,0.0302,0.0358,0.0415,0.044,0.0435,0.0523,0.0491,0.0491,0.048,0.054,0.0546,0.0552,0.048,0.048,0.0479,0,0,-0.0125,-0.0084,-0.0081,-0.0041,0.0013,0.0056,0.0062,0.0128,0.0159,0.0217,0.0255,0.0315,0.0387,0.0436,0.0467,0.0514,0.0534,0.0527,0.0517,0.0575,0.058,0.0585,0.0636,0.0645,0.0526,0.0526,0.0526,0,-0.0154,-0.0138,-0.0072,-0.0058,-0.0039,0.0041,0.0047,0.0103,0.0179,0.0211,0.0222,0.0351,0.0396,0.0471,0.0486,0.0517,0.0549,0.0497,0.0576,0.0581,0.0586,0.0637,0.0648,0.0526,0.0526,0.0526,0.0526,0,-0.0177,-0.0169,-0.0165,-0.0118,-0.0077,-0.006,0.0024,0.0072,0.0119,0.0178,0.0266,0.035,0.0421,0.0453,0.0482,0.0549,0.056,0.057,0.056,0.0591,0.0644,0.0655,0.0525,0.0525,0.0525,0.0525,0,0,-0.0236,-0.0195,-0.0195,-0.0197,-0.0113,-0.0088,-0.0029,0.0049,0.0084,0.0181,0.0237,0.0342,0.0395,0.0435,0.0495,0.055,0.0621,0.0568,0.0572,0.0603,0.0747,0.0732,0.0743,0.0642,0.0644,0.0645,0.0772,0,-0.0281,-0.0299,-0.0244,-0.025,-0.0254,-0.0159,-0.0109,-0.0021,0.0067,0.0152,0.0266,0.0343,0.0389,0.0427,0.0494,0.06,0.0649,0.0585,0.0725,0.0729,0.0699,0.0755,0.0702,0.0808,0.0783,0.0785,0.0786,0,-0.0318,-0.0332,-0.036,-0.0332,-0.032,-0.0297,-0.0208,-0.015,0.0004,0.0074,0.0187,0.0289,0.0415,0.0433,0.0618,0.0577,0.0647,0.072,0.0727,0.0721,0.0735,0.0774,0.083,0.0956,0.0803,0.0802,0.0801,0,-0.0407,-0.0407,-0.0443,-0.0434,-0.038,-0.0365,-0.0318,-0.0182,-0.0126,0.0028,0.0092,0.0261,0.0358,0.0479,0.065,0.0632,0.0844,0.084,0.0891,0.0891,0.0877,0.0872,0.1054,0.0935,0.0935,0.0934,0.0934,0,-0.0478,-0.0504,-0.0497,-0.0519,-0.0545,-0.046,-0.0431,-0.0354,-0.0219,-0.0139,0.0036,0.0145,0.0372,0.0537,0.0654,0.0825,0.0852,0.0897,0.0926,0.0871,0.0864,0.0996,0.1041,0.0939,0.0938,0.0937,0.0936,0,-0.0562,-0.0557,-0.0606,-0.0595,-0.0593,-0.0609,-0.0532,-0.049,-0.0357,-0.0243,-0.0195,0.0075,0.0298,0.0513,0.0745,0.0834,0.104,0.1024,0.0944,0.096,0.1093,0.1136,0.1311,0.1354,0.1098,0.1098,0.1099,0,-0.0603,-0.0644,-0.0689,-0.072,-0.0722,-0.0722,-0.0702,-0.0584,-0.0515,-0.0279,-0.0219,0.0035,0.0223,0.0575,0.0775,0.0982,0.108,0.1053,0.0999,0.1106,0.1177,0.1205,0.123,0.0988,0.0987,0.0987,0.0986,0,-0.0686,-0.0706,-0.075,-0.083,-0.085,-0.0852,-0.0806,-0.0776,-0.0596,-0.0489,-0.0278,-0.0117,0.0242,0.0503,0.0784,0.0897,0.1105,0.1046,0.1191,0.1132,0.1142,0.1194,0.0902,0.0982,0.0982,0.0983,0.0983,0.0983,-0.0735,-0.0798,-0.0858,-0.0925,-0.0952,-0.0947,-0.0934,-0.085,-0.0758,-0.0556,-0.0382,-0.0144,0.026,0.0654,0.0801,0.1084,0.1078,0.1155,0.121,0.1238,0.1246,0.0935,0.102,0.1021,0.1022,0.1022,0.1022,0,-0.0789,-0.0853,-0.0934,-0.0998,-0.1033,-0.1022,-0.0968,-0.0914,-0.0813,-0.0632,-0.0456,-0.0036,0.0315,0.0694,0.1102,0.125,0.127,0.1353,0.1396,0.1421,0.1183,0.1145,0.1218,0.1218,0.1218,0.1218,0.1218,0.1218,-0.0815,-0.0909,-0.0959,-0.1042,-0.1076,-0.1081,-0.1049,-0.0961,-0.0825,-0.056,-0.0314,-0.0107,0.043,0.111,0.1495,0.1518,0.1663,0.1622,0.1746,0.1596,0.1582,0.1569,0.1548,0.1705,0.1706,0.1933,0.1935,0.1937]}],[{"header":{"parameterUnit":"m.s-1","parameterCategory":2,"la1":30.2991,"la2":30.254,"lo1":-89.0895,"lo2":-89.0444,"dy":0.0017,"dx":0.0017,"nx":28,"ny":28,"refTime":"2025-03-26T21:00:00:Z","depth":"2","parameterNumber":2,"parameterNumberName":"U-component_of_CURRENTS"},"data":[0,0,0,0,0,0,0,0,0,0,0,0,0,0,0,0,0,0,0,0,0,0,0,0,0,0,0,0,0,0,0,0,0,0,0,0,0,0,0,0,0,0,0,0,0,0,0,0,0,0,0,0,0,0,0,0,0,0,-0.2237,-0.2238,0,-0.2305,-0.2306,-0.2306,-0.2315,-0.2315,-0.2314,-0.2313,-0.233,-0.2331,-0.2333,0,0,0,0,0,0,0,0,0,0,0,0,0,-0.2179,-0.218,-0.2237,-0.2238,-0.2238,-0.2305,-0.2306,-0.2307,-0.2316,-0.2315,-0.2314,-0.2313,-0.233,-0.2331,-0.2333,0,0,0,0,0,0,0,0,0,0,0,0,0,-0.2222,-0.218,-0.2237,-0.2251,-0.2252,-0.2304,-0.2306,-0.2307,-0.2316,-0.2315,-0.2314,-0.2313,-0.233,-0.2331,-0.2333,-0.2364,0,0,-0.2338,-0.2339,0,0,0,0,0,0,0,0,-0.2219,-0.2224,-0.2248,-0.225,-0.2252,-0.23,-0.2292,-0.2323,-0.2316,-0.2292,-0.2313,-0.2312,-0.2316,-0.2319,-0.2335,-0.2364,-0.2365,-0.2338,-0.2339,-0.234,-0.234,0,0,0,0,0,0,0,-0.2216,-0.2221,-0.2264,-0.2249,-0.2251,-0.2275,-0.228,-0.2298,-0.2309,-0.2294,-0.2295,-0.2302,-0.2317,-0.2334,-0.2336,-0.2365,-0.2338,-0.2339,-0.234,-0.2341,-0.2416,-0.2417,0,0,0,0,0,0,-0.2205,-0.2218,-0.2262,-0.2266,-0.2232,-0.2277,-0.2282,-0.2286,-0.2309,-0.2312,-0.2303,-0.2302,-0.2331,-0.2334,-0.2336,-0.2408,-0.234,-0.2341,-0.2342,-0.2415,-0.2416,-0.2418,0,0,0,0,0,0,-0.2203,-0.2208,-0.2259,-0.2244,-0.2252,-0.2278,-0.2284,-0.2288,-0.2309,-0.2316,-0.2318,-0.2319,-0.2331,-0.2334,-0.2371,-0.2407,-0.2342,-0.2343,-0.2414,-0.2416,-0.2417,-0.2529,0,0,0,0,0,0,-0.2201,-0.2207,-0.2221,-0.2243,-0.2252,-0.228,-0.2285,-0.229,-0.2314,-0.2314,-0.2331,-0.2331,-0.233,-0.2369,-0.2373,-0.2408,-0.2345,-0.2413,-0.2415,-0.2417,-0.2524,-0.2534,-0.2542,0,0,0,0,0,-0.2199,-0.2217,-0.2221,-0.2228,-0.2266,-0.228,-0.2287,-0.2303,-0.2316,-0.232,-0.2352,-0.2331,-0.2383,-0.2373,-0.2376,-0.2412,-0.2412,-0.2414,-0.2416,-0.2519,-0.2532,-0.2542,0,0,0,0,0,0,-0.2192,-0.2221,-0.2225,-0.2249,-0.2258,-0.2281,-0.2301,-0.2311,-0.2343,-0.2353,-0.2359,-0.2363,-0.2399,-0.239,-0.2378,-0.2434,-0.2388,-0.2391,-0.2464,-0.2476,-0.2485,-0.2501,-0.2346,0,0,0,0,0,-0.2199,-0.2218,-0.2238,-0.2251,-0.2264,-0.2286,-0.2303,-0.2309,-0.2335,-0.2348,-0.2363,-0.2384,-0.2413,-0.2432,-0.2438,-0.2487,-0.2459,-0.2504,-0.2514,-0.2522,-0.2535,-0.2528,-0.2539,-0.2425,-0.2425,-0.2425,0,0,-0.2191,-0.2215,-0.2221,-0.2251,-0.2269,-0.2303,-0.2293,-0.2315,-0.2359,-0.2346,-0.2411,-0.2412,-0.2428,-0.2477,-0.2492,-0.2478,-0.2538,-0.2525,-0.2532,-0.2541,-0.2532,-0.2543,-0.2553,-0.2427,-0.2426,-0.2426,0,0,-0.2192,-0.2215,-0.2237,-0.2258,-0.2289,-0.2315,-0.2322,-0.2351,-0.2381,-0.2435,-0.2442,-0.2477,-0.2509,-0.2543,-0.2564,-0.263,-0.2577,-0.2613,-0.2694,-0.2688,-0.2698,-0.2706,-0.268,-0.2685,-0.2631,-0.2631,-0.2631,0,-0.2185,-0.2222,-0.2241,-0.2276,-0.2308,-0.2324,-0.2362,-0.2403,-0.244,-0.2481,-0.2459,-0.2543,-0.255,-0.2645,-0.2667,-0.2657,-0.2626,-0.2657,-0.2702,-0.271,-0.2716,-0.2688,-0.2692,-0.2637,-0.2636,-0.2636,-0.2635,0,-0.2196,-0.2244,-0.2261,-0.2322,-0.2356,-0.2384,-0.2442,-0.2485,-0.2524,-0.2561,-0.2637,-0.2659,-0.2703,-0.2715,-0.2721,-0.2783,-0.2736,-0.2706,-0.2679,-0.2735,-0.2701,-0.2703,-0.2645,-0.2643,-0.2641,-0.264,0,0,-0.2128,-0.2249,-0.2253,-0.2308,-0.2387,-0.2412,-0.2507,-0.2591,-0.2647,-0.2699,-0.2763,-0.2848,-0.2841,-0.2863,-0.2868,-0.2885,-0.2908,-0.2823,-0.282,-0.2807,-0.2873,-0.2709,-0.2695,-0.2878,-0.2879,-0.288,-0.2829,0,-0.2133,-0.2215,-0.228,-0.237,-0.2424,-0.2498,-0.2584,-0.2664,-0.2715,-0.2773,-0.2841,-0.2882,-0.2906,-0.2908,-0.2945,-0.2906,-0.2919,-0.2923,-0.2812,-0.2809,-0.2665,-0.2694,-0.2535,-0.2465,-0.2831,-0.2831,-0.2832,0,-0.2115,-0.2187,-0.2271,-0.2424,-0.2454,-0.2511,-0.2635,-0.2706,-0.2811,-0.2853,-0.2927,-0.2935,-0.3015,-0.2976,-0.3009,-0.3003,-0.2952,-0.2922,-0.2918,-0.2729,-0.2649,-0.2467,-0.2454,-0.2835,-0.2835,-0.2834,-0.2834,0,-0.2045,-0.2185,-0.2258,-0.23,-0.2461,-0.2525,-0.2606,-0.272,-0.2776,-0.2871,-0.2885,-0.2991,-0.299,-0.3001,-0.2956,-0.2974,-0.2923,-0.2933,-0.275,-0.2737,-0.2562,-0.253,-0.2927,-0.2927,-0.2927,-0.2927,-0.2927,0,-0.2025,-0.2085,-0.2232,-0.2268,-0.236,-0.2484,-0.2571,-0.2663,-0.2759,-0.279,-0.2899,-0.2898,-0.2984,-0.296,-0.2948,-0.2842,-0.292,-0.2764,-0.2715,-0.2592,-0.2565,-0.2853,-0.2846,-0.2925,-0.2925,-0.2926,-0.2926,0,-0.1934,-0.2031,-0.2118,-0.228,-0.2326,-0.2377,-0.2525,-0.2568,-0.2687,-0.2709,-0.2729,-0.2819,-0.2781,-0.2822,-0.2792,-0.2782,-0.272,-0.2648,-0.2485,-0.2417,-0.2552,-0.2551,-0.2485,-0.2479,-0.2474,-0.2469,-0.2466,0,-0.1899,-0.1931,-0.2071,-0.2094,-0.2165,-0.2265,-0.2319,-0.2494,-0.2523,-0.2625,-0.26,-0.26,-0.2552,-0.2487,-0.2459,-0.2409,-0.2503,-0.222,-0.2239,-0.2549,-0.2509,-0.2516,-0.2521,-0.206,-0.2053,-0.2048,-0.2043,0,-0.1816,-0.1853,-0.191,-0.1959,-0.2014,-0.2085,-0.2173,-0.2194,-0.2352,-0.2373,-0.235,-0.232,-0.2271,-0.2144,-0.2084,-0.2041,-0.2235,-0.2102,-0.2462,-0.218,-0.2139,-0.2102,-0.2124,-0.1995,-0.2,-0.2003,-0.2006,-0.2008,-0.1716,-0.172,-0.1771,-0.1806,-0.1853,-0.1868,-0.1879,-0.1958,-0.1977,-0.1994,-0.205,-0.1978,-0.1991,-0.1806,-0.1726,-0.1699,-0.1851,-0.1825,-0.1847,-0.1873,-0.1816,-0.1766,-0.1542,-0.1544,-0.1546,-0.1547,-0.1549,0,-0.1591,-0.1602,-0.1616,-0.165,-0.1626,-0.1714,-0.1746,-0.1725,-0.1684,-0.1723,-0.1704,-0.1526,-0.1445,-0.1463,-0.1358,-0.1348,-0.1399,-0.1291,-0.1378,-0.1425,-0.1467,-0.1395,-0.1006,-0.1005,-0.1003,-0.1002,0,0,-0.1522,-0.1486,-0.1497,-0.1417,-0.1427,-0.137,-0.1356,-0.1331,-0.1341,-0.1262,-0.1245,-0.1372,-0.1411,-0.1203,-0.1163,-0.1069,-0.1239,-0.1018,-0.1451,-0.1598,-0.1639,-0.1765,-0.1704,0,0,0,0,0]},{"header":{"parameterUnit":"m.s-1","parameterCategory":2,"la1":30.2991,"la2":30.254,"lo1":-89.0895,"lo2":-89.0444,"dy":0.0017,"dx":0.0017,"nx":28,"ny":28,"refTime":"2025-03-26T21:00:00:Z","depth":"2","parameterNumber":3,"parameterNumberName":"V-component_of_CURRENTS"},"data":[0,0,0,0,0,0,0,0,0,0,0,0,0,0,0,0,0,0,0,0,0,0,0,0,0,0,0,0,0,0,0,0,0,0,0,0,0,0,0,0,0,0,0,0,0,0,0,0,0,0,0,0,0,0,0,0,0,0,-0.0134,-0.0133,0,-0.0072,-0.0072,-0.0071,-0.0058,-0.0058,-0.0058,-0.0059,0.0074,0.0078,0.0082,0,0,0,0,0,0,0,0,0,0,0,0,0,-0.0184,-0.0183,-0.0134,-0.0133,-0.0133,-0.0072,-0.0072,-0.0071,-0.0057,-0.0058,-0.0059,-0.0059,0.0073,0.0077,0.0082,0,0,0,0,0,0,0,0,0,0,0,0,0,-0.0146,-0.0183,-0.0134,-0.0119,-0.0117,-0.0073,-0.0072,-0.007,-0.0057,-0.0058,-0.0059,-0.0059,0.0071,0.0077,0.0083,0.0133,0,0,0.0101,0.0103,0,0,0,0,0,0,0,0,-0.0148,-0.0144,-0.0122,-0.012,-0.0118,-0.0073,-0.004,0.0001,-0.0057,-0.008,-0.0059,-0.006,0.0032,0.0041,0.0053,0.0139,0.0145,0.0101,0.0105,0.0107,0.0109,0,0,0,0,0,0,0,-0.0151,-0.0146,-0.011,-0.0121,-0.0118,-0.0095,-0.0091,-0.0032,-0.002,-0.0078,-0.0077,-0.007,0.0033,0.0047,0.0057,0.0147,0.0101,0.0106,0.011,0.0112,0.0319,0.0321,0,0,0,0,0,0,-0.0161,-0.0149,-0.0112,-0.0108,-0.0135,-0.0094,-0.009,-0.0087,-0.0022,-0.0013,-0.0069,-0.0069,0.0037,0.005,0.0061,0.0136,0.0107,0.0113,0.0116,0.0317,0.032,0.0322,0,0,0,0,0,0,-0.0162,-0.0158,-0.0114,-0.0127,-0.012,-0.0093,-0.009,-0.0085,-0.0073,-0.0016,-0.0006,-0.0063,0.0037,0.0053,0.013,0.0141,0.0116,0.0121,0.0315,0.0318,0.0321,0.0279,0,0,0,0,0,0,-0.0164,-0.0159,-0.0157,-0.0128,-0.0119,-0.0102,-0.0089,-0.0084,-0.0068,-0.0068,-0.0006,0.0005,0.0038,0.0121,0.0136,0.0148,0.0126,0.0312,0.0316,0.032,0.0278,0.028,0.0282,0,0,0,0,0,-0.0166,-0.0168,-0.0158,-0.0153,-0.0119,-0.0103,-0.0097,-0.0079,-0.0067,-0.0069,-0.0005,0.0003,0.0154,0.0128,0.0145,0.0159,0.0311,0.0315,0.0319,0.0277,0.028,0.0282,0,0,0,0,0,0,-0.0194,-0.0166,-0.0154,-0.0149,-0.0132,-0.0101,-0.0095,-0.0078,-0.0031,-0.002,0.0034,0.0051,0.0114,0.0157,0.0127,0.0233,0.0232,0.024,0.0194,0.0197,0.0199,0.0189,0.0131,0,0,0,0,0,-0.0196,-0.0189,-0.0162,-0.0159,-0.015,-0.0119,-0.0107,-0.0094,-0.005,-0.0033,0.0015,0.0082,0.0147,0.0187,0.024,0.031,0.034,0.0331,0.0333,0.0334,0.0341,0.0398,0.0404,0.0336,0.0336,0.0336,0,0,-0.0206,-0.0189,-0.0185,-0.0163,-0.0145,-0.0139,-0.0114,-0.01,-0.0085,-0.002,0.0024,0.0085,0.0167,0.0233,0.0267,0.0271,0.0371,0.034,0.034,0.0347,0.0403,0.0409,0.0415,0.0339,0.0338,0.0338,0,0,-0.0229,-0.0206,-0.021,-0.0198,-0.0174,-0.0151,-0.0149,-0.0114,-0.0089,-0.0033,0.0021,0.0104,0.0185,0.0257,0.0304,0.0361,0.0371,0.0365,0.0376,0.0431,0.0436,0.0441,0.0479,0.0487,0.0375,0.0375,0.0375,0,-0.0243,-0.0248,-0.021,-0.0215,-0.0211,-0.016,-0.0171,-0.0129,-0.0072,-0.0037,-0.0027,0.0136,0.0202,0.0313,0.0332,0.0363,0.0381,0.0351,0.0429,0.0435,0.0441,0.0479,0.0489,0.0374,0.0374,0.0374,0.0374,0,-0.0268,-0.0277,-0.0279,-0.0266,-0.0251,-0.0254,-0.0199,-0.0167,-0.0123,-0.0073,0.0031,0.014,0.0237,0.0274,0.0323,0.0409,0.0402,0.041,0.041,0.0444,0.0483,0.0494,0.0372,0.0372,0.0373,0.0373,0,0,-0.0303,-0.0301,-0.0305,-0.0321,-0.0284,-0.0281,-0.0236,-0.0184,-0.0152,-0.0058,-0.0007,0.0151,0.0216,0.0277,0.0357,0.0426,0.0488,0.0431,0.0435,0.0446,0.0585,0.0498,0.0502,0.049,0.0492,0.0494,0.0591,0,-0.0345,-0.0384,-0.0357,-0.0388,-0.0407,-0.0347,-0.0312,-0.0245,-0.0176,-0.0111,0.0042,0.012,0.0216,0.0259,0.0353,0.0449,0.0516,0.046,0.0572,0.0576,0.0474,0.0512,0.0487,0.0563,0.0602,0.0604,0.0606,0,-0.0384,-0.0411,-0.0456,-0.0464,-0.0463,-0.0458,-0.0403,-0.0366,-0.0238,-0.0178,-0.0047,0.0048,0.0211,0.025,0.047,0.0419,0.0502,0.0576,0.0581,0.0522,0.0509,0.0542,0.0583,0.0624,0.0623,0.0622,0.062,0,-0.0449,-0.0481,-0.0526,-0.0531,-0.0517,-0.0512,-0.0489,-0.0386,-0.0348,-0.0226,-0.0183,0.0014,0.0111,0.0257,0.0455,0.0443,0.0654,0.0654,0.0663,0.0657,0.0673,0.0664,0.0781,0.0781,0.0781,0.0781,0.078,0,-0.0515,-0.0552,-0.0566,-0.0595,-0.0632,-0.0586,-0.0582,-0.0524,-0.0432,-0.0376,-0.0221,-0.0135,0.0111,0.027,0.0425,0.0589,0.0643,0.067,0.068,0.0656,0.0645,0.0729,0.0722,0.0784,0.0783,0.0783,0.0782,0,-0.0583,-0.059,-0.065,-0.0664,-0.067,-0.0695,-0.0669,-0.0649,-0.0552,-0.0482,-0.0449,-0.0237,-0.0062,0.0172,0.0411,0.0541,0.0699,0.0738,0.0683,0.0682,0.0668,0.0658,0.0736,0.0734,0.0732,0.073,0.0729,0,-0.0622,-0.0662,-0.0718,-0.0752,-0.0767,-0.079,-0.079,-0.0719,-0.0684,-0.0533,-0.0497,-0.0331,-0.019,0.0125,0.0348,0.0571,0.0628,0.0673,0.0645,0.0664,0.0666,0.0659,0.0651,0.0667,0.0665,0.0664,0.0663,0,-0.0699,-0.0716,-0.0765,-0.0843,-0.0875,-0.0899,-0.0892,-0.0885,-0.0771,-0.0701,-0.0569,-0.0466,-0.0198,0.0038,0.0299,0.0435,0.0627,0.0641,0.0722,0.0646,0.0597,0.0598,0.0595,0.065,0.0651,0.0652,0.0653,0.0653,-0.0744,-0.0801,-0.086,-0.0929,-0.0965,-0.0979,-0.0984,-0.0942,-0.0893,-0.0746,-0.0644,-0.0456,-0.0233,0.0097,0.0295,0.0482,0.0478,0.0573,0.058,0.0587,0.0526,0.0472,0.0491,0.0492,0.0492,0.0492,0.0492,0,-0.0798,-0.0856,-0.0933,-0.0999,-0.1038,-0.1037,-0.1022,-0.0985,-0.092,-0.0775,-0.0641,-0.0404,-0.0166,0.0058,0.0323,0.0472,0.0518,0.0501,0.0555,0.0565,0.0574,0.0515,0.0477,0.0477,0.0478,0.0478,0,0,-0.0825,-0.0913,-0.0958,-0.104,-0.1075,-0.1092,-0.1077,-0.1002,-0.089,-0.0746,-0.0597,-0.0409,-0.0152,0.0036,0.0223,0.0365,0.0432,0.0375,0.037,0.042,0.0428,0.0591,0.0506,0,0,0,0,0]}],[{"header":{"parameterUnit":"m.s-1","parameterCategory":2,"la1":30.2991,"la2":30.254,"lo1":-89.0895,"lo2":-89.0444,"dy":0.0017,"dx":0.0017,"nx":28,"ny":28,"refTime":"2025-03-26T21:00:00:Z","depth":"4","parameterNumber":2,"parameterNumberName":"U-component_of_CURRENTS"},"data":[0,0,0,0,0,0,0,0,0,0,0,0,0,0,0,0,0,0,0,0,0,0,0,0,0,0,0,0,0,0,0,0,0,0,0,0,0,0,0,0,0,0,0,0,0,0,0,0,0,0,0,0,0,0,0,0,0,0,-0.1208,-0.1208,0,-0.1187,-0.1187,-0.1186,-0.1219,-0.1221,-0.1223,-0.1225,-0.1165,-0.1162,-0.1158,0,0,0,0,0,0,0,0,0,0,0,0,0,-0.1258,-0.1257,-0.1207,-0.1208,-0.1208,-0.1188,-0.1187,-0.1185,-0.1219,-0.1221,-0.1224,-0.1226,-0.1166,-0.1162,-0.1158,0,0,0,0,0,0,0,0,0,0,0,0,0,-0.1229,-0.1256,-0.1207,-0.1229,-0.1231,-0.1188,-0.1186,-0.1185,-0.1219,-0.1221,-0.1224,-0.1227,-0.1167,-0.1163,-0.1158,-0.1069,0,0,-0.1142,-0.114,0,0,0,0,0,0,0,0,-0.1231,-0.1226,-0.1225,-0.1228,-0.123,-0.1216,-0.1183,-0.1147,-0.1218,-0.1214,-0.1225,-0.1228,-0.1182,-0.1176,-0.1154,-0.1066,-0.1063,-0.1142,-0.1139,-0.1136,-0.1135,0,0,0,0,0,0,0,-0.1233,-0.1227,-0.1191,-0.1226,-0.1229,-0.1235,-0.1233,-0.1176,-0.1175,-0.1215,-0.122,-0.123,-0.1182,-0.1159,-0.1153,-0.1062,-0.1142,-0.1137,-0.1134,-0.1132,-0.1045,-0.1046,0,0,0,0,0,0,-0.1249,-0.1229,-0.1192,-0.1191,-0.1247,-0.1232,-0.123,-0.1211,-0.1177,-0.1177,-0.1227,-0.1232,-0.1166,-0.1159,-0.1151,-0.1166,-0.1136,-0.1132,-0.1129,-0.1044,-0.1045,-0.1046,0,0,0,0,0,0,-0.125,-0.1245,-0.1193,-0.1219,-0.1214,-0.1229,-0.1207,-0.1209,-0.1222,-0.1188,-0.1187,-0.1244,-0.1168,-0.1158,-0.1139,-0.116,-0.1129,-0.1125,-0.1044,-0.1045,-0.1046,-0.1118,0,0,0,0,0,0,-0.1251,-0.1244,-0.1242,-0.1218,-0.1213,-0.1192,-0.1205,-0.1207,-0.1226,-0.1232,-0.12,-0.1196,-0.117,-0.1147,-0.1134,-0.1153,-0.1121,-0.1043,-0.1044,-0.1045,-0.1115,-0.1122,-0.1127,0,0,0,0,0,-0.1252,-0.124,-0.1241,-0.1238,-0.1206,-0.1193,-0.119,-0.1206,-0.1224,-0.1227,-0.1217,-0.1199,-0.1148,-0.1142,-0.1127,-0.1145,-0.1042,-0.1044,-0.1045,-0.1112,-0.112,-0.1127,0,0,0,0,0,0,-0.127,-0.1243,-0.1243,-0.1227,-0.1224,-0.1203,-0.1209,-0.1216,-0.1206,-0.1219,-0.1189,-0.1182,-0.1176,-0.1145,-0.114,-0.1127,-0.1098,-0.1096,-0.1154,-0.1161,-0.1167,-0.1183,-0.1117,0,0,0,0,0,-0.1269,-0.1251,-0.1235,-0.1227,-0.1224,-0.1217,-0.1219,-0.1229,-0.1217,-0.1218,-0.1203,-0.1184,-0.116,-0.1153,-0.112,-0.1095,-0.1084,-0.1104,-0.111,-0.1116,-0.1119,-0.1163,-0.1175,-0.1052,-0.1052,-0.1052,0,0,-0.1283,-0.1262,-0.1258,-0.1231,-0.1225,-0.1226,-0.1224,-0.1231,-0.1239,-0.1207,-0.1214,-0.1196,-0.1157,-0.1146,-0.1141,-0.113,-0.1135,-0.1118,-0.1123,-0.1123,-0.1166,-0.1179,-0.119,-0.1053,-0.1053,-0.1052,0,0,-0.1291,-0.1272,-0.126,-0.1254,-0.1252,-0.1248,-0.1259,-0.1251,-0.1254,-0.1246,-0.1239,-0.1244,-0.1194,-0.1188,-0.1171,-0.1187,-0.1164,-0.1181,-0.1226,-0.1269,-0.128,-0.129,-0.1251,-0.1257,-0.1189,-0.119,-0.119,0,-0.1317,-0.1287,-0.1262,-0.1251,-0.1262,-0.1264,-0.1274,-0.1262,-0.1258,-0.1261,-0.1265,-0.1239,-0.1215,-0.1209,-0.1229,-0.1202,-0.1201,-0.1201,-0.128,-0.129,-0.1298,-0.1257,-0.1262,-0.1193,-0.1193,-0.1193,-0.1192,0,-0.1313,-0.1301,-0.1296,-0.1283,-0.1288,-0.1297,-0.129,-0.1305,-0.1318,-0.1309,-0.1313,-0.1286,-0.1281,-0.1279,-0.1256,-0.1302,-0.1269,-0.1282,-0.1266,-0.1316,-0.1267,-0.1271,-0.1199,-0.1197,-0.1196,-0.1195,0,0,-0.1336,-0.1304,-0.1306,-0.1301,-0.1309,-0.1307,-0.1332,-0.1341,-0.137,-0.1357,-0.1396,-0.1355,-0.1356,-0.1339,-0.1323,-0.1363,-0.1412,-0.136,-0.136,-0.1327,-0.146,-0.1378,-0.1374,-0.1459,-0.1462,-0.1463,-0.1387,0,-0.1348,-0.1341,-0.1326,-0.1338,-0.1333,-0.1351,-0.1371,-0.1383,-0.1402,-0.1439,-0.1415,-0.1434,-0.1369,-0.14,-0.1418,-0.143,-0.1434,-0.1427,-0.141,-0.1408,-0.1338,-0.1382,-0.147,-0.139,-0.1391,-0.1391,-0.1392,0,-0.1341,-0.1335,-0.1357,-0.1352,-0.1356,-0.1379,-0.1436,-0.1448,-0.1489,-0.1505,-0.152,-0.1519,-0.1536,-0.1516,-0.1501,-0.1507,-0.1482,-0.148,-0.1478,-0.1384,-0.1337,-0.1338,-0.14,-0.1399,-0.1398,-0.1398,-0.1397,0,-0.1352,-0.1345,-0.137,-0.1373,-0.1386,-0.1414,-0.1434,-0.1477,-0.1485,-0.1572,-0.1597,-0.1612,-0.1613,-0.1623,-0.1568,-0.1567,-0.157,-0.1564,-0.1438,-0.1428,-0.1491,-0.1482,-0.1569,-0.1569,-0.157,-0.157,-0.157,0,-0.1344,-0.135,-0.1379,-0.1387,-0.1414,-0.1425,-0.1468,-0.1504,-0.1559,-0.1556,-0.1619,-0.1609,-0.1655,-0.1641,-0.1613,-0.1514,-0.1582,-0.1443,-0.1424,-0.1513,-0.1509,-0.1491,-0.1483,-0.1567,-0.1567,-0.1568,-0.1569,0,-0.1318,-0.1348,-0.1366,-0.1405,-0.1413,-0.1435,-0.1457,-0.1469,-0.1538,-0.1558,-0.159,-0.1617,-0.1597,-0.1599,-0.1612,-0.1525,-0.1497,-0.1442,-0.1492,-0.1476,-0.1303,-0.1299,-0.1298,-0.1295,-0.1292,-0.129,-0.1288,0,-0.1287,-0.1304,-0.1375,-0.1384,-0.1398,-0.142,-0.1416,-0.1464,-0.1456,-0.1509,-0.1489,-0.1528,-0.1525,-0.1433,-0.1472,-0.1427,-0.1401,-0.1358,-0.137,-0.1304,-0.1285,-0.1286,-0.1286,-0.1284,-0.1283,-0.1282,-0.1282,0,-0.1218,-0.1283,-0.1303,-0.1342,-0.1349,-0.134,-0.133,-0.1315,-0.1346,-0.1422,-0.1375,-0.1385,-0.1349,-0.1353,-0.1336,-0.1298,-0.1398,-0.1331,-0.1335,-0.1346,-0.1287,-0.1271,-0.1274,-0.1273,-0.1274,-0.1275,-0.1275,0,-0.1168,-0.1183,-0.1239,-0.1248,-0.127,-0.1231,-0.1243,-0.1194,-0.1197,-0.1249,-0.1223,-0.1262,-0.1318,-0.1279,-0.1258,-0.1242,-0.1214,-0.1169,-0.1182,-0.1192,-0.1201,-0.1114,-0.1033,0,0,0,0,0,-0.1091,-0.1093,-0.1113,-0.1125,-0.1153,-0.1153,-0.1155,-0.1163,-0.1189,-0.1125,-0.1177,-0.1153,-0.1142,-0.1158,-0.1117,-0.1202,-0.1218,-0.1148,-0.1174,-0.1223,-0.1233,-0.1258,0,0,0,0,0,0,-0.1036,-0.1064,-0.1075,-0.1011,-0.0994,-0.0988,-0.0985,-0.101,-0.0969,-0.1028,-0.1023,-0.109,-0.1091,-0.1159,-0.1099,-0.1105,-0.1098,-0.1184,-0.118,-0.1217,-0.1226,-0.1235,-0.1264,0,0,0,0,0]},{"header":{"parameterUnit":"m.s-1","parameterCategory":2,"la1":30.2991,"la2":30.254,"lo1":-89.0895,"lo2":-89.0444,"dy":0.0017,"dx":0.0017,"nx":28,"ny":28,"refTime":"2025-03-26T21:00:00:Z","depth":"4","parameterNumber":3,"parameterNumberName":"V-component_of_CURRENTS"},"data":[0,0,0,0,0,0,0,0,0,0,0,0,0,0,0,0,0,0,0,0,0,0,0,0,0,0,0,0,0,0,0,0,0,0,0,0,0,0,0,0,0,0,0,0,0,0,0,0,0,0,0,0,0,0,0,0,0,0,-0.0236,-0.0236,0,-0.0282,-0.0282,-0.0283,-0.0309,-0.0309,-0.0309,-0.0309,-0.0395,-0.0397,-0.04,0,0,0,0,0,0,0,0,0,0,0,0,0,-0.0212,-0.0212,-0.0236,-0.0236,-0.0237,-0.0282,-0.0283,-0.0284,-0.0309,-0.0309,-0.0309,-0.0309,-0.0394,-0.0397,-0.04,0,0,0,0,0,0,0,0,0,0,0,0,0,-0.024,-0.0212,-0.0236,-0.0252,-0.0254,-0.0281,-0.0283,-0.0284,-0.031,-0.0309,-0.0309,-0.0308,-0.0393,-0.0397,-0.0401,-0.0432,0,0,-0.0412,-0.0414,0,0,0,0,0,0,0,0,-0.0238,-0.0241,-0.025,-0.0251,-0.0253,-0.0286,-0.0305,-0.0334,-0.031,-0.0292,-0.0309,-0.0308,-0.036,-0.0367,-0.0381,-0.0436,-0.0439,-0.0413,-0.0415,-0.0416,-0.0418,0,0,0,0,0,0,0,-0.0236,-0.024,-0.0258,-0.025,-0.0252,-0.0271,-0.0274,-0.0311,-0.0332,-0.0294,-0.0295,-0.0294,-0.0362,-0.0377,-0.0383,-0.0441,-0.0412,-0.0416,-0.0418,-0.042,-0.0474,-0.0473,0,0,0,0,0,0,-0.0221,-0.0238,-0.0256,-0.0259,-0.024,-0.0271,-0.0275,-0.0279,-0.033,-0.0336,-0.0294,-0.0295,-0.0371,-0.0379,-0.0386,-0.0425,-0.0416,-0.042,-0.0422,-0.0475,-0.0473,-0.0473,0,0,0,0,0,0,-0.0221,-0.0223,-0.0255,-0.0246,-0.0251,-0.0271,-0.0276,-0.028,-0.0299,-0.0329,-0.0337,-0.0308,-0.0371,-0.0381,-0.0423,-0.0429,-0.0422,-0.0425,-0.0476,-0.0474,-0.0473,-0.0504,0,0,0,0,0,0,-0.022,-0.0223,-0.0227,-0.0245,-0.0251,-0.0277,-0.0276,-0.0281,-0.0297,-0.0298,-0.0344,-0.0351,-0.0371,-0.0417,-0.0427,-0.0434,-0.0428,-0.0477,-0.0475,-0.0473,-0.0504,-0.0504,-0.0504,0,0,0,0,0,-0.0219,-0.0226,-0.0228,-0.023,-0.0254,-0.0277,-0.0283,-0.0298,-0.0298,-0.0313,-0.0339,-0.035,-0.0412,-0.0421,-0.0432,-0.044,-0.0477,-0.0475,-0.0474,-0.0504,-0.0504,-0.0504,0,0,0,0,0,0,-0.0223,-0.0229,-0.0231,-0.0241,-0.0259,-0.028,-0.0292,-0.0301,-0.0334,-0.0337,-0.0364,-0.0374,-0.0403,-0.0413,-0.0421,-0.0443,-0.0437,-0.0437,-0.0456,-0.0456,-0.0456,-0.0475,-0.0431,0,0,0,0,0,-0.0223,-0.0226,-0.0241,-0.0249,-0.0256,-0.0275,-0.0287,-0.0299,-0.0324,-0.0338,-0.0365,-0.0384,-0.0403,-0.0425,-0.0441,-0.0476,-0.0478,-0.0476,-0.0476,-0.0476,-0.0494,-0.0489,-0.0491,-0.0466,-0.0466,-0.0466,0,0,-0.0224,-0.0228,-0.0231,-0.0249,-0.0262,-0.0286,-0.0283,-0.0303,-0.0328,-0.0343,-0.0386,-0.0391,-0.0408,-0.0437,-0.0449,-0.0452,-0.0481,-0.0474,-0.0475,-0.0493,-0.0487,-0.049,-0.0492,-0.0465,-0.0465,-0.0466,0,0,-0.0234,-0.0235,-0.0246,-0.0261,-0.0279,-0.0294,-0.03,-0.0325,-0.0343,-0.0382,-0.0384,-0.0398,-0.0438,-0.045,-0.0461,-0.0471,-0.0476,-0.0459,-0.0493,-0.0487,-0.049,-0.0492,-0.0495,-0.0498,-0.0467,-0.0467,-0.0467,0,-0.024,-0.0258,-0.0255,-0.0274,-0.0293,-0.0298,-0.0328,-0.0348,-0.0384,-0.0404,-0.0396,-0.0437,-0.0445,-0.0484,-0.0478,-0.0475,-0.0474,-0.05,-0.049,-0.0493,-0.0495,-0.0497,-0.05,-0.0468,-0.0468,-0.0468,-0.0468,0,-0.026,-0.0282,-0.029,-0.0316,-0.0334,-0.036,-0.0381,-0.0403,-0.0416,-0.0435,-0.0469,-0.0478,-0.0506,-0.0492,-0.0497,-0.0513,-0.0507,-0.0488,-0.05,-0.05,-0.0501,-0.0504,-0.047,-0.0469,-0.0469,-0.0469,0,0,-0.0272,-0.0301,-0.0309,-0.0336,-0.0363,-0.0386,-0.0418,-0.0461,-0.0487,-0.0507,-0.0542,-0.0559,-0.0558,-0.0568,-0.0562,-0.0556,-0.056,-0.0534,-0.0533,-0.0554,-0.0556,-0.0457,-0.045,-0.0541,-0.0541,-0.0542,-0.0551,0,-0.0302,-0.0349,-0.0354,-0.0412,-0.0444,-0.0456,-0.0489,-0.052,-0.0537,-0.0566,-0.0574,-0.0592,-0.0589,-0.059,-0.0595,-0.056,-0.0567,-0.056,-0.0539,-0.0539,-0.0464,-0.0449,-0.0543,-0.0553,-0.0553,-0.0554,-0.0554,0,-0.0335,-0.0365,-0.0422,-0.0475,-0.0489,-0.0518,-0.057,-0.0598,-0.0626,-0.0635,-0.0659,-0.0652,-0.0665,-0.0638,-0.0635,-0.0631,-0.0609,-0.058,-0.0579,-0.0482,-0.0442,-0.055,-0.0558,-0.0558,-0.0557,-0.0557,-0.0557,0,-0.0367,-0.0421,-0.0471,-0.0489,-0.0539,-0.0567,-0.0593,-0.0624,-0.0652,-0.0667,-0.0676,-0.0697,-0.0694,-0.068,-0.0628,-0.0633,-0.0598,-0.0595,-0.0498,-0.0492,-0.057,-0.0567,-0.0597,-0.0597,-0.0597,-0.0597,-0.0597,0,-0.0411,-0.0455,-0.049,-0.0522,-0.0586,-0.0599,-0.0656,-0.0676,-0.0698,-0.0723,-0.0717,-0.0726,-0.0699,-0.0673,-0.0641,-0.0568,-0.0616,-0.0507,-0.0483,-0.058,-0.0578,-0.0572,-0.0569,-0.0598,-0.0598,-0.0598,-0.0597,0,-0.0451,-0.0471,-0.0536,-0.0588,-0.0606,-0.0652,-0.0697,-0.0728,-0.0737,-0.0762,-0.0761,-0.0751,-0.0692,-0.0652,-0.0597,-0.0565,-0.0504,-0.0468,-0.0576,-0.0557,-0.0411,-0.0409,-0.0382,-0.0378,-0.0375,-0.0373,-0.0371,0,-0.0475,-0.051,-0.0584,-0.0622,-0.065,-0.0705,-0.0738,-0.0754,-0.0769,-0.0772,-0.0779,-0.0725,-0.0702,-0.0569,-0.052,-0.0436,-0.0418,-0.0405,-0.0415,-0.0407,-0.0387,-0.039,-0.0392,-0.0366,-0.0365,-0.0364,-0.0364,0,-0.0523,-0.0549,-0.0602,-0.0677,-0.0722,-0.0767,-0.0801,-0.0808,-0.0808,-0.0821,-0.0763,-0.0689,-0.0611,-0.0523,-0.0433,-0.0385,-0.042,-0.0374,-0.0381,-0.039,-0.0387,-0.0371,-0.0377,-0.0353,-0.0355,-0.0356,-0.0356,0,-0.0553,-0.06,-0.0662,-0.0726,-0.0783,-0.0805,-0.0821,-0.0807,-0.081,-0.0781,-0.076,-0.0677,-0.0634,-0.0496,-0.0427,-0.0339,-0.0333,-0.0331,-0.0341,-0.0352,-0.032,-0.0311,-0.0234,0,0,0,0,0,-0.0578,-0.063,-0.07,-0.0762,-0.0813,-0.0837,-0.0853,-0.085,-0.0834,-0.0782,-0.076,-0.0671,-0.0526,-0.0481,-0.0373,-0.039,-0.0335,-0.0263,-0.0343,-0.0296,-0.0308,-0.0264,0,0,0,0,0,0,-0.0595,-0.0669,-0.0705,-0.0769,-0.081,-0.085,-0.0856,-0.0842,-0.0798,-0.0772,-0.0691,-0.0648,-0.0511,-0.0584,-0.0374,-0.035,-0.0385,-0.0201,-0.0198,-0.0289,-0.03,-0.0309,-0.0269,0,0,0,0,0]}]]